{"data":{"norad_id":69161,"epoch":"2026-09-19T22:47:44.022912Z","epoch_age_seconds":70639,"freshness":"FRESH","line1":"1 69161U 26111P   26262.94981508  .00019511  00000+0  58726-3 0  9993","line2":"2 69161  53.1558  68.3337 0000763  75.4702 284.6385 15.34390549 18810","mean_motion":15.34390549,"eccentricity":7.63e-5,"inclination_deg":53.1558,"raan_deg":68.3337,"arg_perigee_deg":75.4702,"mean_anomaly_deg":284.6385,"bstar":0.00058726,"rev_number":1881,"period_min":93.848336131794,"perigee_km":462.20937246136,"apogee_km":463.25328896863,"semimajor_km":6840.868330715,"source":"CELESTRAK","updated_at":"2026-09-20T09:00:44.091988Z"}}